Terminal Aerodrome Forecast
Issued by NWS Aberdeen, SD

Home | Current Version | Previous Version | Text Only | Print | Product List | Glossary On
Versions: 1 2 3 4 5 6 7 8 9 10 11 12 13 14 15 16 17 18 19 20 21 22 23 24 25 26 27 28 29 30 31 32 33 34 35 36 37 38 39 40 41 42 43 44 45 46 47 48 49 50
000
FTUS43 KABR 281100
TAFABR
TAF
KABR 281140Z 2812/2912 16010KT P6SM OVC030
      TEMPO 2812/2815 OVC035
     FM281500 17017KT P6SM SKC
     FM281700 18023G33KT P6SM SKC
     FM290200 19015KT P6SM -SHRA OVC070
     FM290700 25014KT P6SM BKN100=

USA.gov is the U.S. government's official web portal to all federal, state and local government web resources and services.